Location: ???????????
(54.6970°N, 39.1477°E)
Time: 11:50:43
(UTC+00:00)

CZ-2C R/B - Pass Details

Date: 19 May 2025
Orbit: 703 x 902 km, 98.2° (Epoch: 13 June)

Event Time Altitude Azimuth Distance (km) Brightness Sun altitude
Rises 21:39:55 0° 19° (NNE) 3,520 8.0 -15.2°
Reaches altitude 10° 21:42:34 10° 28° (NNE) 2,587 6.8 -15.2°
Maximum altitude 21:47:51 35° 93° (E) 1,421 4.4 -15.1°
Enters shadow 21:51:59 15° 152° (SSE) 2,204 4.9 -15.0°
